• In Kazakhstan
  • List of Countries
  • For 7 days
  • Water Temperature
  • Satellite Maps
  • Weather Map
  • News
  • Weather Widgets
  • user-avatar
    Login

    Hourly Weather Kalgoorlie

    Today, 21 October, Saturday

    Time Temperature Precipitation Wind Pressure Humidity
    00:00 +20°C° 0 mm 8 mps 737 mmHg 36%
    01:00 +18°C° 0 mm 8 mps 737 mmHg 42%
    02:00 +17°C° 0 mm 8 mps 736 mmHg 49%
    03:00 +16°C° 0 mm 8 mps 736 mmHg 52%
    04:00 +15°C° 0 mm 8 mps 736 mmHg 55%
    05:00 +15°C° 0 mm 7 mps 736 mmHg 59%
    06:00 +16°C° 0 mm 8 mps 736 mmHg 55%
    07:00 +17°C° 0 mm 8 mps 736 mmHg 50%
    08:00 +18°C° 0 mm 8 mps 736 mmHg 49%
    09:00 +22°C° 0 mm 8 mps 736 mmHg 41%
    10:00 +26°C° 0 mm 8 mps 735 mmHg 34%
    11:00 +29°C° 0 mm 8 mps 735 mmHg 26%
    12:00 +31°C° 0 mm 8 mps 734 mmHg 24%
    13:00 +33°C° 0 mm 8 mps 734 mmHg 22%
    14:00 +34°C° 0 mm 7 mps 733 mmHg 20%
    15:00 +34°C° 0 mm 7 mps 733 mmHg 20%
    16:00 +33°C° 0 mm 6 mps 732 mmHg 20%
    17:00 +33°C° 0 mm 6 mps 732 mmHg 21%
    18:00 +32°C° 0 mm 6 mps 732 mmHg 22%
    19:00 +30°C° 0 mm 7 mps 732 mmHg 24%
    20:00 +29°C° 0 mm 7 mps 732 mmHg 25%
    21:00 +28°C° 0 mm 8 mps 732 mmHg 26%
    22:00 +27°C° 0 mm 8 mps 732 mmHg 27%
    23:00 +26°C° 0 mm 9 mps 732 mmHg 28%

    Tomorrow, 22 October, Sunday

    Time Temperature Precipitation Wind Pressure Humidity
    00:00 +26°C° 0 mm 9 mps 732 mmHg 27%
    01:00 +24°C° 0 mm 9 mps 731 mmHg 27%
    02:00 +24°C° 0 mm 8 mps 731 mmHg 26%
    03:00 +24°C° 0 mm 8 mps 731 mmHg 26%
    04:00 +23°C° 0 mm 8 mps 731 mmHg 27%
    05:00 +23°C° 0 mm 7 mps 731 mmHg 27%
    06:00 +22°C° 0.5 mm 8 mps 730 mmHg 32%
    07:00 +22°C° 0.5 mm 9 mps 730 mmHg 36%
    08:00 +22°C° 0.5 mm 10 mps 730 mmHg 40%
    09:00 +24°C° 0.1 mm 11 mps 729 mmHg 37%
    10:00 +27°C° 0.1 mm 11 mps 729 mmHg 34%
    11:00 +29°C° 0.1 mm 12 mps 728 mmHg 31%
    12:00 +31°C° 0.2 mm 11 mps 727 mmHg 31%
    13:00 +33°C° 0.2 mm 11 mps 727 mmHg 31%
    14:00 +34°C° 0.2 mm 10 mps 726 mmHg 31%
    15:00 +34°C° 1.2 mm 9 mps 725 mmHg 32%
    16:00 +33°C° 1.2 mm 8 mps 725 mmHg 34%
    17:00 +33°C° 1.2 mm 6 mps 725 mmHg 35%
    18:00 +30°C° 0 mm 5 mps 725 mmHg 38%
    19:00 +29°C° 0 mm 4 mps 725 mmHg 40%
    20:00 +27°C° 0 mm 4 mps 725 mmHg 42%
    21:00 +26°C° 0 mm 3 mps 725 mmHg 44%
    22:00 +25°C° 0 mm 3 mps 725 mmHg 46%
    23:00 +24°C° 0 mm 2 mps 725 mmHg 48%

    Day after tomorrow, 23 October, Monday

    Time Temperature Precipitation Wind Pressure Humidity
    00:00 +24°C° 0 mm 2 mps 725 mmHg 50%
    01:00 +24°C° 0 mm 3 mps 725 mmHg 52%
    02:00 +22°C° 0 mm 3 mps 724 mmHg 53%
    03:00 +22°C° 0 mm 3 mps 724 mmHg 59%
    04:00 +21°C° 0 mm 3 mps 725 mmHg 64%
    05:00 +20°C° 0 mm 4 mps 725 mmHg 69%
    06:00 +22°C° 0 mm 4 mps 725 mmHg 64%
    07:00 +23°C° 0 mm 5 mps 726 mmHg 59%
    08:00 +26°C° 0 mm 5 mps 726 mmHg 54%
    09:00 +27°C° 0 mm 5 mps 726 mmHg 46%
    10:00 +28°C° 0 mm 5 mps 726 mmHg 39%
    11:00 +30°C° 0 mm 5 mps 726 mmHg 31%
    12:00 +32°C° 0 mm 5 mps 726 mmHg 28%
    13:00 +32°C° 0 mm 5 mps 726 mmHg 26%
    14:00 +33°C° 0 mm 5 mps 725 mmHg 23%
    15:00 +33°C° 0 mm 6 mps 725 mmHg 23%
    16:00 +33°C° 0 mm 6 mps 725 mmHg 24%
    17:00 +32°C° 0 mm 6 mps 725 mmHg 25%
    18:00 +30°C° 0 mm 6 mps 726 mmHg 29%
    19:00 +29°C° 0 mm 6 mps 727 mmHg 32%
    20:00 +27°C° 0 mm 5 mps 727 mmHg 36%
    21:00 +26°C° 0 mm 6 mps 728 mmHg 42%
    22:00 +24°C° 0 mm 6 mps 728 mmHg 48%
    23:00 +23°C° 0 mm 7 mps 728 mmHg 54%

    24 October, Tuesday

    Time Temperature Precipitation Wind Pressure Humidity
    00:00 +21°C° 0 mm 6 mps 728 mmHg 59%
    01:00 +20°C° 0 mm 6 mps 728 mmHg 63%
    02:00 +19°C° 0 mm 5 mps 728 mmHg 68%
    03:00 +19°C° 0 mm 5 mps 728 mmHg 70%
    04:00 +18°C° 0 mm 4 mps 729 mmHg 73%
    05:00 +17°C° 0 mm 4 mps 729 mmHg 76%
    06:00 +18°C° 0 mm 4 mps 730 mmHg 72%
    07:00 +19°C° 0 mm 3 mps 730 mmHg 67%
    08:00 +20°C° 0 mm 3 mps 731 mmHg 62%
    09:00 +22°C° 0 mm 3 mps 731 mmHg 56%
    10:00 +25°C° 0 mm 2 mps 731 mmHg 50%
    11:00 +26°C° 0 mm 2 mps 730 mmHg 43%
    12:00 +27°C° 0 mm 2 mps 730 mmHg 39%
    13:00 +28°C° 0 mm 2 mps 729 mmHg 35%
    14:00 +29°C° 0 mm 2 mps 728 mmHg 30%
    15:00 +29°C° 0 mm 1 mps 728 mmHg 30%
    16:00 +29°C° 0 mm 1 mps 728 mmHg 29%
    17:00 +30°C° 0 mm 1 mps 728 mmHg 28%
    18:00 +29°C° 0 mm 2 mps 729 mmHg 29%
    19:00 +29°C° 0 mm 3 mps 729 mmHg 30%
    20:00 +28°C° 0 mm 4 mps 729 mmHg 31%
    21:00 +27°C° 0 mm 4 mps 729 mmHg 33%
    22:00 +26°C° 0 mm 5 mps 729 mmHg 36%
    23:00 +24°C° 0 mm 6 mps 729 mmHg 38%

    25 October, Wednesday

    Time Temperature Precipitation Wind Pressure Humidity
    00:00 +23°C° 0 mm 6 mps 729 mmHg 45%
    01:00 +21°C° 0 mm 6 mps 729 mmHg 52%
    02:00 +20°C° 0 mm 6 mps 728 mmHg 59%
    03:00 +19°C° 0 mm 6 mps 729 mmHg 61%
    04:00 +19°C° 0 mm 6 mps 729 mmHg 64%
    05:00 +17°C° 0 mm 6 mps 729 mmHg 66%
    06:00 +19°C° 0 mm 6 mps 729 mmHg 60%
    07:00 +21°C° 0 mm 6 mps 730 mmHg 55%
    08:00 +22°C° 0 mm 6 mps 730 mmHg 49%
    09:00 +26°C° 0 mm 5 mps 730 mmHg 43%
    10:00 +28°C° 0 mm 5 mps 730 mmHg 36%
    11:00 +30°C° 0 mm 5 mps 729 mmHg 30%
    12:00 +32°C° 0 mm 4 mps 729 mmHg 26%
    13:00 +34°C° 0 mm 3 mps 728 mmHg 22%
    14:00 +35°C° 0 mm 3 mps 727 mmHg 18%
    15:00 +35°C° 0 mm 2 mps 727 mmHg 17%
    16:00 +35°C° 0 mm 2 mps 727 mmHg 16%
    17:00 +35°C° 0 mm 2 mps 727 mmHg 15%
    18:00 +34°C° 0 mm 3 mps 727 mmHg 16%
    19:00 +33°C° 0 mm 4 mps 727 mmHg 17%
    20:00 +30°C° 0 mm 5 mps 727 mmHg 19%
    21:00 +29°C° 0 mm 5 mps 727 mmHg 20%
    22:00 +28°C° 0 mm 6 mps 727 mmHg 22%
    23:00 +26°C° 0 mm 7 mps 727 mmHg 24%

    26 October, Thursday

    Time Temperature Precipitation Wind Pressure Humidity
    00:00 +24°C° 0 mm 6 mps 727 mmHg 29%
    01:00 +23°C° 0 mm 5 mps 726 mmHg 33%
    02:00 +22°C° 0 mm 5 mps 726 mmHg 38%
    03:00 +21°C° 0 mm 4 mps 726 mmHg 42%
    04:00 +20°C° 0 mm 4 mps 726 mmHg 46%
    05:00 +20°C° 0 mm 4 mps 726 mmHg 50%
    06:00 +21°C° 0 mm 5 mps 726 mmHg 46%
    07:00 +22°C° 0 mm 5 mps 726 mmHg 42%
    08:00 +24°C° 0 mm 6 mps 727 mmHg 38%
    09:00 +26°C° 0 mm 6 mps 726 mmHg 31%
    10:00 +28°C° 0 mm 7 mps 726 mmHg 25%
    11:00 +30°C° 0 mm 7 mps 726 mmHg 19%
    12:00 +31°C° 0 mm 8 mps 725 mmHg 16%
    13:00 +32°C° 0 mm 8 mps 725 mmHg 14%
    14:00 +33°C° 0 mm 9 mps 724 mmHg 12%
    15:00 +32°C° 0 mm 9 mps 724 mmHg 14%
    16:00 +31°C° 0 mm 9 mps 724 mmHg 16%
    17:00 +29°C° 0 mm 9 mps 724 mmHg 18%
    18:00 +27°C° 0 mm 9 mps 724 mmHg 24%
    19:00 +26°C° 0 mm 8 mps 725 mmHg 30%
    20:00 +24°C° 0 mm 8 mps 725 mmHg 36%
    21:00 +22°C° 0 mm 8 mps 725 mmHg 42%
    22:00 +21°C° 0 mm 9 mps 725 mmHg 47%
    23:00 +19°C° 0 mm 9 mps 726 mmHg 52%
    Show more